TimeEST,TemperatureF,Dew PointF,Humidity,Sea Level PressureIn,VisibilityMPH,Wind Direction,Wind SpeedMPH,Gust SpeedMPH,PrecipitationIn,Events,Conditions,WindDirDegrees,DateUTC
12:15 AM,47.7,32.7,56,29.62,10.0,South,11.5,18.4,N/A,Rain,Rain,190,2013-02-19 05:15:00
12:35 AM,45.9,36.5,70,29.62,10.0,South,11.5,20.7,N/A,Rain,Light Rain,190,2013-02-19 05:35:00
12:55 AM,44.2,38.5,80,29.60,7.0,South,10.4,17.3,N/A,Rain,Rain,190,2013-02-19 05:55:00
1:15 AM,43.7,39.2,84,29.58,10.0,South,13.8,18.4,N/A,Rain,Light Rain,170,2013-02-19 06:15:00
1:35 AM,43.7,38.8,83,29.57,10.0,South,13.8,21.9,N/A,Rain,Light Rain,180,2013-02-19 06:35:00
1:55 AM,43.7,38.8,83,29.55,10.0,South,17.3,23.0,N/A,Rain,Rain,180,2013-02-19 06:55:00
2:15 AM,43.9,38.3,81,29.54,10.0,South,19.6,28.8,N/A,Rain,Light Rain,190,2013-02-19 07:15:00
2:35 AM,43.7,38.5,82,29.53,7.0,South,17.3,27.6,N/A,Rain,Rain,180,2013-02-19 07:35:00
2:55 AM,43.0,38.7,85,29.51,10.0,South,16.1,24.2,N/A,Rain,Light Rain,180,2013-02-19 07:55:00
3:15 AM,43.0,38.8,85,29.49,10.0,South,15.0,27.6,N/A,Rain,Light Rain,180,2013-02-19 08:15:00
3:35 AM,43.0,38.8,85,29.49,10.0,South,17.3,23.0,N/A,,Overcast,190,2013-02-19 08:35:00
3:55 AM,43.2,39.2,86,29.47,5.0,SSW,16.1,25.3,N/A,,Drizzle,200,2013-02-19 08:55:00
4:15 AM,43.9,39.7,85,29.47,7.0,SSW,15.0,28.8,N/A,,Light Drizzle,200,2013-02-19 09:15:00
4:35 AM,44.1,40.1,86,29.47,5.0,SW,12.7,24.2,N/A,Rain,Rain,220,2013-02-19 09:35:00
4:55 AM,41.5,36.9,83,29.50,7.0,WSW,17.3,42.6,N/A,Rain,Light Rain,250,2013-02-19 09:55:00
5:15 AM,38.8,34.0,83,29.52,10.0,West,16.1,31.1,N/A,,Overcast,270,2013-02-19 10:15:00
5:35 AM,37.4,32.9,84,29.53,10.0,WSW,13.8,24.2,N/A,,Overcast,250,2013-02-19 10:35:00
5:55 AM,36.9,32.4,84,29.55,10.0,WSW,13.8,23.0,N/A,,Overcast,250,2013-02-19 10:55:00
6:15 AM,36.1,32.0,85,29.57,7.0,WSW,18.4,26.5,N/A,,Overcast,240,2013-02-19 11:15:00
6:35 AM,35.6,31.5,85,29.58,7.0,WSW,12.7,27.6,N/A,,Overcast,240,2013-02-19 11:35:00
6:55 AM,34.5,30.7,86,29.58,5.0,WSW,17.3,25.3,N/A,,Overcast,250,2013-02-19 11:55:00
7:15 AM,33.1,29.8,88,29.59,10.0,WSW,17.3,28.8,N/A,,Overcast,240,2013-02-19 12:15:00
7:35 AM,32.0,27.7,84,29.61,10.0,SW,16.1,26.5,N/A,,Overcast,230,2013-02-19 12:35:00
7:55 AM,30.6,26.1,83,29.62,10.0,WSW,18.4,32.2,N/A,,Overcast,240,2013-02-19 12:55:00
8:15 AM,29.8,25.2,83,29.63,10.0,WSW,20.7,27.6,N/A,,Overcast,240,2013-02-19 13:15:00
8:35 AM,29.3,23.7,80,29.65,10.0,WSW,15.0,25.3,N/A,,Overcast,240,2013-02-19 13:35:00
9:15 AM,28.4,22.5,78,29.67,4.0,WSW,15.0,24.2,N/A,,Haze,240,2013-02-19 14:15:00
9:35 AM,27.5,21.4,78,29.67,5.0,WSW,19.6,28.8,N/A,,Haze,250,2013-02-19 14:35:00
9:55 AM,26.6,21.2,80,29.68,1.8,WSW,13.8,23.0,N/A,Snow,Light Snow,240,2013-02-19 14:55:00
10:15 AM,26.4,20.7,79,29.69,2.0,WSW,16.1,25.3,N/A,Snow,Light Snow,240,2013-02-19 15:15:00
10:35 AM,26.6,19.9,76,29.69,4.0,SW,18.4,27.6,N/A,Snow,Light Snow,230,2013-02-19 15:35:00
10:55 AM,26.2,19.2,75,29.70,3.0,WSW,18.4,29.9,N/A,Snow,Light Snow,250,2013-02-19 15:55:00
11:15 AM,26.2,19.2,75,29.70,3.0,WSW,13.8,27.6,N/A,Snow,Light Snow,240,2013-02-19 16:15:00
11:35 AM,25.7,18.1,73,29.71,4.0,WSW,19.6,28.8,N/A,Snow,Light Snow,240,2013-02-19 16:35:00
11:55 AM,25.2,16.5,70,29.72,5.0,WSW,21.9,35.7,N/A,Snow,Light Snow,250,2013-02-19 16:55:00
12:15 PM,26.2,16.5,67,29.73,7.0,WSW,19.6,33.4,N/A,Snow,Light Snow,250,2013-02-19 17:15:00
12:35 PM,25.7,14.0,61,29.72,10.0,West,23.0,31.1,N/A,,Overcast,260,2013-02-19 17:35:00
12:55 PM,25.3,15.4,66,29.73,7.0,West,19.6,27.6,N/A,Snow,Light Snow,260,2013-02-19 17:55:00
1:15 PM,24.6,16.3,71,29.73,3.0,WSW,18.4,28.8,N/A,Snow,Light Snow,250,2013-02-19 18:15:00
1:35 PM,23.7,17.2,76,29.74,1.5,West,20.7,26.5,N/A,Snow,Light Snow,260,2013-02-19 18:35:00
1:55 PM,23.9,13.8,65,29.74,7.0,WSW,18.4,28.8,N/A,Snow,Light Snow,250,2013-02-19 18:55:00
2:15 PM,24.3,12.2,60,29.75,10.0,West,24.2,33.4,N/A,,Overcast,260,2013-02-19 19:15:00
2:35 PM,23.9,12.2,61,29.76,10.0,West,21.9,29.9,N/A,,Overcast,270,2013-02-19 19:35:00
2:55 PM,23.9,12.4,62,29.77,10.0,West,24.2,33.4,N/A,,Overcast,270,2013-02-19 19:55:00
3:15 PM,22.8,15.1,72,29.78,1.8,West,18.4,26.5,N/A,Snow,Light Snow,260,2013-02-19 20:15:00
3:35 PM,22.8,13.5,67,29.79,5.0,West,17.3,29.9,N/A,Snow,Light Snow,260,2013-02-19 20:35:00
3:55 PM,22.6,12.4,65,29.81,7.0,West,18.4,26.5,N/A,Snow,Light Snow,260,2013-02-19 20:55:00
4:15 PM,22.5,12.4,65,29.81,7.0,West,23.0,27.6,N/A,Snow,Light Snow,260,2013-02-19 21:15:00
4:35 PM,22.3,11.3,63,29.83,10.0,West,16.1,24.2,N/A,,Overcast,260,2013-02-19 21:35:00
4:55 PM,22.1,11.5,64,29.84,10.0,West,16.1,26.5,N/A,,Overcast,260,2013-02-19 21:55:00
5:15 PM,22.1,11.1,63,29.86,10.0,West,18.4,26.5,N/A,,Overcast,270,2013-02-19 22:15:00
5:35 PM,21.2,10.2,63,29.87,10.0,West,19.6,25.3,N/A,,Overcast,270,2013-02-19 22:35:00
5:55 PM,20.8,12.7,71,29.88,3.0,West,16.1,24.2,N/A,Snow,Light Snow,260,2013-02-19 22:55:00
6:15 PM,21.0,11.5,67,29.88,10.0,West,18.4,31.1,N/A,,Overcast,270,2013-02-19 23:15:00
7:35 PM,19.8,11.7,71,29.93,10.0,WSW,15.0,26.5,N/A,,Overcast,250,2013-02-20 00:35:00
7:55 PM,19.4,11.1,70,29.93,10.0,West,15.0,24.2,N/A,Snow,Light Snow,260,2013-02-20 00:55:00
8:15 PM,19.4,11.1,70,29.95,10.0,WSW,12.7,19.6,N/A,,Overcast,250,2013-02-20 01:15:00
8:35 PM,19.2,10.8,70,29.95,10.0,West,15.0,20.7,N/A,Snow,Light Snow,260,2013-02-20 01:35:00
8:55 PM,19.0,10.4,69,29.95,10.0,West,16.1,21.9,N/A,Snow,Light Snow,260,2013-02-20 01:55:00
9:15 PM,18.9,10.2,69,29.95,10.0,West,11.5,21.9,N/A,,Overcast,260,2013-02-20 02:15:00
9:35 PM,18.9,10.4,70,29.97,10.0,West,15.0,23.0,N/A,,Overcast,260,2013-02-20 02:35:00
9:55 PM,18.5,10.0,70,29.97,10.0,WSW,17.3,27.6,N/A,,Overcast,250,2013-02-20 02:55:00
10:15 PM,18.5,10.2,70,29.97,10.0,West,16.1,23.0,N/A,Snow,Light Snow,260,2013-02-20 03:15:00
10:35 PM,18.5,10.4,71,29.98,10.0,West,13.8,23.0,N/A,,Overcast,260,2013-02-20 03:35:00
10:55 PM,18.5,10.6,71,29.98,7.0,WSW,12.7,23.0,N/A,Snow,Light Snow,250,2013-02-20 03:55:00
11:15 PM,18.5,10.9,72,29.97,10.0,WSW,16.1,23.0,N/A,,Overcast,250,2013-02-20 04:15:00
11:35 PM,18.5,11.1,73,29.98,10.0,WSW,11.5,23.0,N/A,,Overcast,250,2013-02-20 04:35:00
11:55 PM,18.7,11.1,72,29.98,10.0,West,12.7,28.8,N/A,,Overcast,260,2013-02-20 04:55:00